Retour au catalogue

COSMOS 970 DEB

ActifLEO
NORAD 64971·DEBRIS·🇷🇺 Russia

Lancé Dec 21, 1977 depuis Baikonur Cosmodrome

Loading…

Prochains Passages (prochaines 24 heures)

TLE

FraisSource: Space-Track

Époque: Sep 12, 2026, 23:48 UTC

1 64971U 77121CG  26255.99231734  .00000047  00000-0  13932-3 0  9995
2 64971  65.8281 253.2811 0135209 161.1742 230.1106 13.67959011639477

Suivez COSMOS 970 DEB en temps réel avec AllMySat

Download on the App Store